This is the latest recevied weather packets stored in our database for station/object NY3Q. If no packets are shown the sender has not sent any weather packets the latest 10 day(s).
| Time | Temp. | Humidity | Pressure | Rain* | Wind** | Luminosity | Snow |
|---|---|---|---|---|---|---|---|
| 1777643213 | 25° C | 79% | 1012.1 hPa | 0 mm | - | 189 W/m² | - |
| 1777642910 | 25° C | 81% | 1012.2 hPa | 0 mm | - | 193 W/m² | - |
| 1777642607 | 24.44° C | 80% | 1012.1 hPa | 0 mm | - | 158 W/m² | - |
| 1777642304 | 24.44° C | 81% | 1012.3 hPa | 0 mm | - | 149 W/m² | - |
| 1777642000 | 24.44° C | 82% | 1012.3 hPa | 0 mm | - | 153 W/m² | - |
| 1777641696 | 24.44° C | 82% | 1012.2 hPa | 0 mm | - | 178 W/m² | - |
| 1777641391 | 25° C | 83% | 1012.2 hPa | 0 mm | - | 173 W/m² | - |
| 1777641087 | 24.44° C | 86% | 1012 hPa | 0 mm | - | 243 W/m² | - |
| 1777640783 | 23.89° C | 89% | 1011.9 hPa | 0 mm | - | 318 W/m² | - |
| 1777640480 | 22.78° C | 89% | 1012 hPa | 0 mm | - | 260 W/m² | - |
| 1777640177 | 22.78° C | 91% | 1011.9 hPa | 0 mm | - | 89 W/m² | - |
| 1777639874 | 22.78° C | 93% | 1012 hPa | 0 mm | - | 242 W/m² | - |
| 1777639571 | 22.22° C | 93% | 1012.3 hPa | 0 mm | - | 126 W/m² | - |
| 1777639268 | 21.67° C | 94% | 1011.7 hPa | 0 mm | - | 135 W/m² | - |
| 1777638964 | 21.67° C | 94% | 1011.8 hPa | 0 mm | - | 85 W/m² | - |
| 1777638660 | 21.11° C | 95% | 1011.8 hPa | 0 mm | - | 137 W/m² | - |
| 1777638356 | 20.56° C | 95% | 1012 hPa | 0 mm | - | 80 W/m² | - |
| 1777638052 | 20.56° C | 95% | 1011.8 hPa | 0 mm | - | 80 W/m² | - |
| 1777637749 | 20° C | 96% | 1011.7 hPa | 0 mm | - | 71 W/m² | - |
| 1777637445 | 20° C | 95% | 1011.5 hPa | 0 mm | - | 70 W/m² | - |
| 1777637143 | 20° C | 96% | 1011.5 hPa | 0 mm | - | 64 W/m² | - |
| 1777636839 | 20° C | 96% | 1011.5 hPa | 0 mm | - | 55 W/m² | - |
| 1777636535 | 20° C | 96% | 1011.5 hPa | 0 mm | - | 52 W/m² | - |
| 1777636232 | 19.44° C | 96% | 1011.7 hPa | 0 mm | - | 53 W/m² | - |
| 1777635931 | 19.44° C | 96% | 1011.6 hPa | 0 mm | - | 47 W/m² | - |
* Rain latest hour (hover to see other rain measurements)
** Current wind speed in m/s (hover to see current wind gust speed)